Regional Weather Roundup
Issued by NWS

Home | Current Version | Previous Version | Text Only | Print | Product List | Glossary Off
Versions: 1 2 3 4 5 6 7 8 9 10 11 12 13 14 15 16 17 18 19 20 21 22 23 24 25 26 27 28 29 30 31 32 33 34 35 36 37 38 39 40 41 42 43 44 45 46 47 48 49 50

307
ASUS43 KDTX 202101
RWRMI
MICHIGAN HOURLY REGIONAL WEATHER ROUNDUP
NATIONAL WEATHER SERVICE DETROIT/PONTIAC MI
400 PM EST SAT JAN 20 2018

NOTE: "FAIR" INDICATES FEW OR NO CLOUDS BELOW 12,000 FEET WITH NO
SIGNIFICANT WEATHER AND/OR OBSTRUCTION TO VISIBILITY.

MIZ047>049-052>055-059>063-066>070-074>076-081>083-202200-
SOUTHEAST LOWER MICHIGAN

CITY           SKY/WX    TMP DP  RH WIND       PRES   REMARKS
ADRIAN         FAIR      39  30  70 SW13      29.98R WCI  31
ALMA           FAIR      45  34  66 SW7       29.92R
ANN ARBOR      FAIR      40  30  67 S9        29.95R WCI  34
BAD AXE        FAIR      40  32  74 W5        29.92R
CARO           FAIR      41  32  70 SW8       29.91R
DETROIT CITY   FAIR      43  29  57 SW9       29.95R
DETROIT        PTSUNNY   42  30  62 SW13      29.96R
FLINT          FAIR      41  29  62 SW8       29.93R
GROSSE ILE     FAIR      40  30  67 W8        29.96S WCI  35
HILLSDALE      FAIR      39  30  70 SW9       29.94R WCI  33
HOWELL         FAIR      42  31  65 SW8       29.93R

CITY           SKY/WX    TMP DP  RH WIND       PRES   REMARKS
JACKSON        FAIR      40  29  64 SW12      29.94R WCI  33
LAMBERTVILLE   FAIR      40  30  67 W8        29.98R WCI  35
LANSING        FAIR      43  31  62 SW10      29.93R
LAPEER         FAIR      42  29  61 W8        29.92R
MONROE         FAIR      41  30  65 SW9       29.96S
MT. CLEMENS    PTSUNNY   45  25  45 SW10      29.95R
PONTIAC        PTSUNNY   44  31  60 W9        29.91R
PORT HOPE        N/A     41  31  67 SW5       29.90R
PORT HURON     FAIR      43  28  56 S9        29.94R
TRI CITIES     FAIR      42  33  70 SW13      29.92R
MIDLAND        NOT AVBL
TROY           FAIR      45  30  55 S7        29.95S
SAGINAW HB     FAIR      37  32  81 SW13      29.92R WCI  29
$$
MIZ043>046-050>051-056>058-064>065-071>073-077>080-202200-
SOUTHWEST LOWER MICHIGAN

CITY           SKY/WX    TMP DP  RH WIND       PRES   REMARKS
BATTLE CREEK   FAIR      41  30  65 SW14      29.94R
BENTON HARBOR  FAIR      42  29  59 S6        29.94R
BIG RAPIDS     FAIR      46  29  51 NW3       29.88F
COLDWATER      FAIR      38  31  73 SW10      29.96R WCI  31
FREMONT        FAIR      43  27  54 SW6       29.91S
HOLLAND        FAIR      41  31  67 SW9       29.94R
GRAND RAPIDS   FAIR      44  32  62 W8        29.93R
KALAMAZOO      FAIR      42  31  64 SW9       29.94R
LUDINGTON      FAIR      39  34  83 W6        29.91R WCI  34
MARSHALL       FAIR      40  29  64 S9        29.94R WCI  34
MOUNT PLEASANT FAIR      46  32  57 SW6       29.90R
MUSKEGON       PTSUNNY   40  32  73 S10       29.93R WCI  33
SOUTH HAVEN    FAIR      43  30  59 SW8       29.94S
$$
MIZ016>042-202200-
NORTHERN LOWER MICHIGAN

CITY           SKY/WX    TMP DP  RH WIND       PRES   REMARKS
ALPENA         FAIR      43  31  62 W5        29.89R
BEAVER ISLAND  CLOUDY    37  32  83 SW3       29.88S
BELLAIRE       FAIR      40  33  74 CALM      29.89S
CADILLAC       FAIR      44  32  61 SW6       29.87R
CHARLEVOIX     PTSUNNY   38  32  77 SW5       29.92S WCI  35
FRANKFORT      FAIR      40  33  75 CALM      29.90R
GAYLORD        PTSUNNY   38  32  79 W9        29.87R WCI  31
GRAYLING       FAIR      42  29  59 W6        29.88R
HARBOR SPRINGS PTSUNNY   37  32  81 W7        29.88F WCI  32
HOUGHTON LAKE  FAIR      42  31  64 W5        29.88R
MANISTEE       FAIR      39  33  79 W7        29.91R WCI  34
OSCODA         FAIR      41  30  65 SW8       29.89R
PELLSTON       CLOUDY    39  31  72 W7        29.89R WCI  34
ROGERS CITY    CLOUDY    41  30  65 W7        29.89R
TRAVERSE CITY  CLOUDY    43  33  68 CALM      29.87F
$$
MIZ007>008-015-202200-
EASTERN UPPER MICHIGAN

CITY           SKY/WX    TMP DP  RH WIND       PRES   REMARKS
KINROSS        CLOUDY    40  28  62 W9        29.86R WCI  34
MACKINAC ISLAN CLOUDY    34  31  89 SW8       29.87R WCI  27
NEWBERRY       CLOUDY    38  31  77 NW3       29.85R
S. S. MARIE    FAIR      40  31  70 NW3       29.85R
MUNISING         N/A     41  31  67 VRB3      29.85R
$$
MIZ004>006-011>014-085-202200-
CENTRAL UPPER MICHIGAN

CITY           SKY/WX    TMP DP  RH WIND       PRES   REMARKS
ESCANABA       CLOUDY    38  30  73 SW3       29.88R
MENOMINEE      PTSUNNY   40  31  70 S5        29.89R
SAWYER-GWINN   MOSUNNY   37  28  70 CALM      29.83S
$$
MIZ001>003-009>011-084-202200-
WESTERN UPPER MICHIGAN

CITY           SKY/WX    TMP DP  RH WIND       PRES   REMARKS
IRON MOUNTAIN  CLOUDY    38  30  73 S3        29.84R
HOUGHTON       FAIR      39  29  67 W12       29.80R WCI  32
COPPER HARBOR    N/A     37  31  78 N10       29.82R WCI  30
IRONWOOD       FAIR      40  30  67 SW9       29.83R WCI  34
$$

ABBREVIATIONS USED IN REMARKS
   TC - TEMPERATURE IN CELSIUS
  WCI - WIND CHILL INDEX
   HX - HEAT INDEX
  VSB - VISIBILITY





USA.gov is the U.S. government's official web portal to all federal, state and local government web resources and services.